Time,TemperatureF,DewpointF,PressureIn,WindDirection,WindDirectionDegrees,WindSpeedMPH,WindSpeedGustMPH,Humidity,HourlyPrecipIn,Conditions,Clouds,dailyrainin,SoftwareType,DateUTC
2013-10-19 00:00:00,52.2,42.7,29.87,NW,309,0.0,0.0,70,0.00,,,0.04,Wunderground v.1.15,2013-10-19 04:00:00,
2013-10-19 00:05:00,52.1,42.6,29.87,NW,309,0.0,0.0,70,0.00,,,0.00,Wunderground v.1.15,2013-10-19 04:05:00,
2013-10-19 00:10:00,52.0,42.9,29.87,NW,309,0.0,0.0,71,0.00,,,0.00,Wunderground v.1.15,2013-10-19 04:10:00,
2013-10-19 00:15:00,51.9,42.8,29.87,NW,309,0.0,0.0,71,0.00,,,0.00,Wunderground v.1.15,2013-10-19 04:15:00,
2013-10-19 00:25:00,51.5,42.8,29.88,NW,309,0.0,0.0,72,0.00,,,0.00,Wunderground v.1.15,2013-10-19 04:25:00,
2013-10-19 00:30:00,51.3,42.6,29.88,NW,309,0.0,0.0,72,0.00,,,0.00,Wunderground v.1.15,2013-10-19 04:30:00,
2013-10-19 00:40:00,51.0,42.6,29.88,NW,309,0.0,0.0,73,0.00,,,0.00,Wunderground v.1.15,2013-10-19 04:40:00,
2013-10-19 00:45:00,50.7,42.7,29.88,NW,309,0.0,0.0,74,0.00,,,0.00,Wunderground v.1.15,2013-10-19 04:45:00,
2013-10-19 00:55:00,50.3,42.7,29.88,NW,309,0.0,0.0,75,0.00,,,0.00,Wunderground v.1.15,2013-10-19 04:55:00,
2013-10-19 01:00:00,50.2,42.6,29.89,NW,309,0.0,0.0,75,0.00,,,0.00,Wunderground v.1.15,2013-10-19 05:00:00,
2013-10-19 01:05:00,50.1,42.8,29.89,NW,309,0.0,0.0,76,0.00,,,0.00,Wunderground v.1.15,2013-10-19 05:05:00,
2013-10-19 01:10:00,50.0,43.1,29.89,NW,309,0.0,0.0,77,0.00,,,0.00,Wunderground v.1.15,2013-10-19 05:10:00,
2013-10-19 01:20:00,49.8,43.2,29.89,NW,309,0.0,0.0,78,0.00,,,0.00,Wunderground v.1.15,2013-10-19 05:20:00,
2013-10-19 01:25:00,49.7,43.5,29.89,NW,309,0.0,0.0,79,0.00,,,0.00,Wunderground v.1.15,2013-10-19 05:25:00,
2013-10-19 01:35:00,49.4,43.2,29.90,NW,309,0.0,0.0,79,0.00,,,0.00,Wunderground v.1.15,2013-10-19 05:35:00,
2013-10-19 01:45:00,49.2,43.3,29.90,NW,309,0.0,0.0,80,0.00,,,0.00,Wunderground v.1.15,2013-10-19 05:45:00,
2013-10-19 01:50:00,49.1,43.2,29.90,NW,309,0.0,0.0,80,0.00,,,0.00,Wunderground v.1.15,2013-10-19 05:50:00,
2013-10-19 01:55:00,48.9,43.3,29.90,NW,309,0.0,0.0,81,0.00,,,0.00,Wunderground v.1.15,2013-10-19 05:55:00,
2013-10-19 02:05:00,48.7,43.1,29.90,NW,309,0.0,0.0,81,0.00,,,0.00,Wunderground v.1.15,2013-10-19 06:05:00,
2013-10-19 02:10:00,48.5,42.9,29.90,NW,309,0.0,0.0,81,0.00,,,0.00,Wunderground v.1.15,2013-10-19 06:10:00,
2013-10-19 02:20:00,48.3,42.7,29.90,NW,309,0.0,0.0,81,0.00,,,0.00,Wunderground v.1.15,2013-10-19 06:20:00,
2013-10-19 02:25:00,48.2,43.0,29.90,NW,309,0.0,0.0,82,0.00,,,0.00,Wunderground v.1.15,2013-10-19 06:25:00,
2013-10-19 02:35:00,48.0,42.8,29.90,NW,309,0.0,0.0,82,0.00,,,0.00,Wunderground v.1.15,2013-10-19 06:35:00,
2013-10-19 02:40:00,47.9,42.7,29.90,NW,309,0.0,0.0,82,0.00,,,0.00,Wunderground v.1.15,2013-10-19 06:40:00,
2013-10-19 02:45:00,47.8,42.6,29.90,NW,309,0.0,0.0,82,0.00,,,0.00,Wunderground v.1.15,2013-10-19 06:45:00,
2013-10-19 02:55:00,47.5,42.3,29.90,NW,309,0.0,0.0,82,0.00,,,0.00,Wunderground v.1.15,2013-10-19 06:55:00,
2013-10-19 03:05:00,47.2,42.3,29.90,NW,309,0.0,0.0,83,0.00,,,0.00,Wunderground v.1.15,2013-10-19 07:05:00,
2013-10-19 03:15:00,46.9,42.3,29.90,NW,309,0.0,0.0,84,0.00,,,0.00,Wunderground v.1.15,2013-10-19 07:15:00,
2013-10-19 03:25:00,46.6,42.0,29.90,NW,309,0.0,0.0,84,0.00,,,0.00,Wunderground v.1.15,2013-10-19 07:25:00,
2013-10-19 03:35:00,46.4,42.1,29.91,NW,309,0.0,0.0,85,0.00,,,0.00,Wunderground v.1.15,2013-10-19 07:35:00,
2013-10-19 03:40:00,46.3,42.0,29.91,NW,309,0.0,0.0,85,0.00,,,0.00,Wunderground v.1.15,2013-10-19 07:40:00,
2013-10-19 03:50:00,46.0,41.7,29.91,NW,309,0.0,0.0,85,0.00,,,0.00,Wunderground v.1.15,2013-10-19 07:50:00,
2013-10-19 04:00:00,45.8,41.5,29.91,NW,309,0.0,0.0,85,0.00,,,0.00,Wunderground v.1.15,2013-10-19 08:00:00,
2013-10-19 04:10:00,45.5,41.3,29.91,NW,309,0.0,0.0,85,0.00,,,0.00,Wunderground v.1.15,2013-10-19 08:10:00,
2013-10-19 04:20:00,45.3,41.1,29.92,NW,309,0.0,0.0,85,0.00,,,0.00,Wunderground v.1.15,2013-10-19 08:20:00,
2013-10-19 04:25:00,45.1,41.2,29.91,NW,309,0.0,0.0,86,0.00,,,0.00,Wunderground v.1.15,2013-10-19 08:25:00,
2013-10-19 04:35:00,44.9,41.0,29.92,NW,309,0.0,0.0,86,0.00,,,0.00,Wunderground v.1.15,2013-10-19 08:35:00,
2013-10-19 04:45:00,44.7,40.8,29.92,NW,309,0.0,0.0,86,0.00,,,0.00,Wunderground v.1.15,2013-10-19 08:45:00,
2013-10-19 04:50:00,44.6,40.7,29.92,NW,309,0.0,0.0,86,0.00,,,0.00,Wunderground v.1.15,2013-10-19 08:50:00,
2013-10-19 05:00:00,44.4,40.5,29.92,NW,309,0.0,0.0,86,0.00,,,0.00,Wunderground v.1.15,2013-10-19 09:00:00,
2013-10-19 05:10:00,44.3,40.7,29.92,NW,309,0.0,0.0,87,0.00,,,0.00,Wunderground v.1.15,2013-10-19 09:10:00,
2013-10-19 05:15:00,44.2,40.6,29.92,NW,309,0.0,0.0,87,0.00,,,0.00,Wunderground v.1.15,2013-10-19 09:15:00,
2013-10-19 05:25:00,44.1,40.5,29.92,NW,309,0.0,0.0,87,0.00,,,0.00,Wunderground v.1.15,2013-10-19 09:25:00,
2013-10-19 05:35:00,43.9,40.3,29.92,NW,309,0.0,0.0,87,0.00,,,0.00,Wunderground v.1.15,2013-10-19 09:35:00,
2013-10-19 05:45:00,43.8,40.2,29.93,NW,309,0.0,0.0,87,0.00,,,0.00,Wunderground v.1.15,2013-10-19 09:45:00,
2013-10-19 05:50:00,43.7,40.1,29.93,NW,309,0.0,0.0,87,0.00,,,0.00,Wunderground v.1.15,2013-10-19 09:50:00,
2013-10-19 06:00:00,43.6,40.0,29.93,NW,309,0.0,0.0,87,0.00,,,0.00,Wunderground v.1.15,2013-10-19 10:00:00,
2013-10-19 06:10:00,43.4,40.1,29.93,NW,309,0.0,0.0,88,0.00,,,0.00,Wunderground v.1.15,2013-10-19 10:10:00,
2013-10-19 06:15:00,43.4,40.1,29.93,NW,309,0.0,0.0,88,0.00,,,0.00,Wunderground v.1.15,2013-10-19 10:15:00,
2013-10-19 06:25:00,43.2,39.9,29.93,NW,309,0.0,0.0,88,0.00,,,0.00,Wunderground v.1.15,2013-10-19 10:25:00,
2013-10-19 06:30:00,43.1,39.8,29.93,NW,309,0.0,0.0,88,0.00,,,0.00,Wunderground v.1.15,2013-10-19 10:30:00,
2013-10-19 06:40:00,43.1,40.1,29.93,NW,309,0.0,0.0,89,0.00,,,0.00,Wunderground v.1.15,2013-10-19 10:40:00,
2013-10-19 06:50:00,43.0,40.0,29.93,NW,309,0.0,0.0,89,0.00,,,0.00,Wunderground v.1.15,2013-10-19 10:50:00,
2013-10-19 07:00:00,43.0,40.0,29.93,NW,309,0.0,0.0,89,0.00,,,0.00,Wunderground v.1.15,2013-10-19 11:00:00,
2013-10-19 07:10:00,42.9,39.9,29.93,NW,309,0.0,0.0,89,0.00,,,0.00,Wunderground v.1.15,2013-10-19 11:10:00,
2013-10-19 07:15:00,42.9,39.9,29.93,NW,309,0.0,0.0,89,0.00,,,0.00,Wunderground v.1.15,2013-10-19 11:15:00,
2013-10-19 07:25:00,42.8,39.8,29.93,NW,309,0.0,0.0,89,0.00,,,0.00,Wunderground v.1.15,2013-10-19 11:25:00,
2013-10-19 07:35:00,43.1,40.4,29.93,NW,309,0.0,0.0,90,0.00,,,0.00,Wunderground v.1.15,2013-10-19 11:35:00,
2013-10-19 07:40:00,44.1,41.1,29.93,NW,309,0.0,0.0,89,0.00,,,0.00,Wunderground v.1.15,2013-10-19 11:40:00,
2013-10-19 07:50:00,45.4,42.1,29.93,NW,309,0.0,0.0,88,0.00,,,0.00,Wunderground v.1.15,2013-10-19 11:50:00,
2013-10-19 07:55:00,46.9,42.9,29.93,NW,309,0.0,0.0,86,0.00,,,0.00,Wunderground v.1.15,2013-10-19 11:55:00,
2013-10-19 08:05:00,48.0,42.8,29.93,NW,309,0.0,0.0,82,0.00,,,0.00,Wunderground v.1.15,2013-10-19 12:05:00,
2013-10-19 08:10:00,48.7,43.1,29.93,NW,309,0.0,0.0,81,0.00,,,0.00,Wunderground v.1.15,2013-10-19 12:10:00,
2013-10-19 08:20:00,49.4,42.8,29.94,NW,309,0.0,0.0,78,0.00,,,0.00,Wunderground v.1.15,2013-10-19 12:20:00,
2013-10-19 08:25:00,50.1,43.5,29.94,NW,309,0.0,0.0,78,0.00,,,0.00,Wunderground v.1.15,2013-10-19 12:25:00,
2013-10-19 08:35:00,50.9,43.6,29.95,NW,309,0.0,0.0,76,0.00,,,0.00,Wunderground v.1.15,2013-10-19 12:35:00,
2013-10-19 08:45:00,51.4,43.4,29.94,NW,309,0.0,0.0,74,0.00,,,0.00,Wunderground v.1.15,2013-10-19 12:45:00,
2013-10-19 08:55:00,51.7,43.7,29.94,NW,309,0.0,0.0,74,0.00,,,0.00,Wunderground v.1.15,2013-10-19 12:55:00,
2013-10-19 09:00:00,52.0,43.6,29.94,West,269,0.0,1.0,73,0.00,,,0.00,Wunderground v.1.15,2013-10-19 13:00:00,
2013-10-19 09:05:00,52.6,44.2,29.94,West,269,1.0,1.0,73,0.00,,,0.00,Wunderground v.1.15,2013-10-19 13:05:00,
2013-10-19 09:15:00,53.7,44.5,29.94,SSW,203,0.0,1.0,71,0.00,,,0.00,Wunderground v.1.15,2013-10-19 13:15:00,
2013-10-19 09:20:00,54.3,44.7,29.95,SSW,199,0.0,0.0,70,0.00,,,0.00,Wunderground v.1.15,2013-10-19 13:20:00,
2013-10-19 09:30:00,55.1,44.7,29.95,SSW,193,0.0,0.0,68,0.00,,,0.00,Wunderground v.1.15,2013-10-19 13:30:00,
2013-10-19 09:40:00,56.3,45.5,29.94,NNW,328,0.0,1.0,67,0.00,,,0.00,Wunderground v.1.15,2013-10-19 13:40:00,
2013-10-19 09:50:00,57.6,45.5,29.94,NNW,328,0.0,0.0,64,0.00,,,0.00,Wunderground v.1.15,2013-10-19 13:50:00,
2013-10-19 09:55:00,58.0,45.0,29.94,SW,228,0.0,1.0,62,0.00,,,0.00,Wunderground v.1.15,2013-10-19 13:55:00,
2013-10-19 10:05:00,58.4,45.4,29.94,West,277,1.0,1.0,62,0.00,,,0.00,Wunderground v.1.15,2013-10-19 14:05:00,
2013-10-19 10:10:00,58.9,45.5,29.94,West,277,1.0,1.0,61,0.00,,,0.00,Wunderground v.1.15,2013-10-19 14:10:00,
2013-10-19 10:15:00,59.1,44.8,29.93,South,171,1.0,1.0,59,0.00,,,0.00,Wunderground v.1.15,2013-10-19 14:15:00,
2013-10-19 10:25:00,59.9,44.6,29.94,SW,219,1.0,2.0,57,0.00,,,0.00,Wunderground v.1.15,2013-10-19 14:25:00,
2013-10-19 10:30:00,60.1,45.3,29.93,SSW,196,1.0,1.0,58,0.00,,,0.00,Wunderground v.1.15,2013-10-19 14:30:00,
2013-10-19 10:40:00,61.2,45.4,29.93,WNW,282,1.0,1.0,56,0.00,,,0.00,Wunderground v.1.15,2013-10-19 14:40:00,
2013-10-19 10:45:00,61.4,45.6,29.93,South,174,1.0,1.0,56,0.00,,,0.00,Wunderground v.1.15,2013-10-19 14:45:00,
2013-10-19 10:50:00,61.8,44.5,29.93,WSW,243,1.0,1.0,53,0.00,,,0.00,Wunderground v.1.15,2013-10-19 14:50:00,
2013-10-19 10:55:00,62.4,44.5,29.93,SW,228,1.0,2.0,52,0.00,,,0.00,Wunderground v.1.15,2013-10-19 14:55:00,
2013-10-19 11:05:00,63.1,43.6,29.93,South,178,1.0,2.0,49,0.00,,,0.00,Wunderground v.1.15,2013-10-19 15:05:00,
2013-10-19 11:10:00,63.6,44.1,29.92,SSW,208,1.0,1.0,49,0.00,,,0.00,Wunderground v.1.15,2013-10-19 15:10:00,
2013-10-19 11:20:00,64.5,43.8,29.92,NNE,28,1.0,3.0,47,0.00,,,0.00,Wunderground v.1.15,2013-10-19 15:20:00,
2013-10-19 11:30:00,64.4,44.3,29.92,SW,219,2.0,2.0,48,0.00,,,0.00,Wunderground v.1.15,2013-10-19 15:30:00,
2013-10-19 11:40:00,65.2,43.9,29.92,WNW,288,1.0,1.0,46,0.00,,,0.00,Wunderground v.1.15,2013-10-19 15:40:00,
2013-10-19 11:45:00,64.8,43.5,29.92,SSW,192,2.0,2.0,46,0.00,,,0.00,Wunderground v.1.15,2013-10-19 15:45:00,
2013-10-19 11:55:00,65.7,44.9,29.91,WSW,249,1.0,2.0,47,0.00,,,0.00,Wunderground v.1.15,2013-10-19 15:55:00,
2013-10-19 12:05:00,65.8,44.4,29.91,WNW,292,2.0,2.0,46,0.00,,,0.00,Wunderground v.1.15,2013-10-19 16:05:00,
2013-10-19 12:10:00,65.6,44.3,29.90,WNW,299,2.0,2.0,46,0.00,,,0.00,Wunderground v.1.15,2013-10-19 16:10:00,
2013-10-19 12:20:00,66.1,44.1,29.89,WNW,291,1.0,1.0,45,0.00,,,0.00,Wunderground v.1.15,2013-10-19 16:20:00,
2013-10-19 12:25:00,66.1,43.5,29.89,WNW,288,1.0,2.0,44,0.00,,,0.00,Wunderground v.1.15,2013-10-19 16:25:00,
2013-10-19 12:30:00,65.9,43.9,29.89,West,274,2.0,2.0,45,0.00,,,0.00,Wunderground v.1.15,2013-10-19 16:30:00,
2013-10-19 12:40:00,66.5,43.9,29.89,West,280,2.0,2.0,44,0.00,,,0.00,Wunderground v.1.15,2013-10-19 16:40:00,
2013-10-19 12:45:00,66.2,43.6,29.88,North,9,1.0,3.0,44,0.00,,,0.00,Wunderground v.1.15,2013-10-19 16:45:00,
2013-10-19 12:55:00,67.1,43.2,29.88,SW,223,1.0,1.0,42,0.00,,,0.00,Wunderground v.1.15,2013-10-19 16:55:00,
2013-10-19 13:05:00,66.2,42.4,29.87,South,171,2.0,2.0,42,0.00,,,0.00,Wunderground v.1.15,2013-10-19 17:05:00,
2013-10-19 13:10:00,66.1,42.9,29.87,West,262,1.0,1.0,43,0.00,,,0.00,Wunderground v.1.15,2013-10-19 17:10:00,
2013-10-19 13:20:00,66.0,42.2,29.86,NW,306,1.0,3.0,42,0.00,,,0.00,Wunderground v.1.15,2013-10-19 17:20:00,
2013-10-19 13:30:00,66.0,42.2,29.86,SW,218,1.0,2.0,42,0.00,,,0.00,Wunderground v.1.15,2013-10-19 17:30:00,
2013-10-19 13:40:00,65.9,43.4,29.85,WNW,285,2.0,2.0,44,0.00,,,0.00,Wunderground v.1.15,2013-10-19 17:40:00,
2013-10-19 13:45:00,66.1,42.9,29.85,SW,219,1.0,2.0,43,0.00,,,0.00,Wunderground v.1.15,2013-10-19 17:45:00,
2013-10-19 13:50:00,66.0,42.9,29.85,SSW,202,1.0,1.0,43,0.00,,,0.00,Wunderground v.1.15,2013-10-19 17:50:00,
2013-10-19 14:00:00,66.3,43.1,29.85,SSW,201,1.0,1.0,43,0.00,,,0.00,Wunderground v.1.15,2013-10-19 18:00:00,
2013-10-19 14:05:00,66.6,43.4,29.85,NW,325,1.0,1.0,43,0.00,,,0.00,Wunderground v.1.15,2013-10-19 18:05:00,
2013-10-19 14:10:00,66.6,42.8,29.85,SSW,200,1.0,1.0,42,0.00,,,0.00,Wunderground v.1.15,2013-10-19 18:10:00,
2013-10-19 14:20:00,66.3,42.5,29.85,SSW,211,1.0,1.0,42,0.00,,,0.00,Wunderground v.1.15,2013-10-19 18:20:00,
2013-10-19 14:25:00,66.4,43.2,29.85,SW,236,2.0,2.0,43,0.00,,,0.00,Wunderground v.1.15,2013-10-19 18:25:00,
2013-10-19 14:35:00,67.1,42.6,29.84,West,273,1.0,2.0,41,0.00,,,0.00,Wunderground v.1.15,2013-10-19 18:35:00,
2013-10-19 14:45:00,66.6,42.2,29.84,SW,223,1.0,1.0,41,0.00,,,0.00,Wunderground v.1.15,2013-10-19 18:45:00,
2013-10-19 14:55:00,66.3,43.1,29.84,SSW,196,2.0,2.0,43,0.00,,,0.00,Wunderground v.1.15,2013-10-19 18:55:00,
2013-10-19 15:00:00,66.5,43.3,29.84,WNW,288,1.0,1.0,43,0.00,,,0.00,Wunderground v.1.15,2013-10-19 19:00:00,
2013-10-19 15:05:00,66.5,43.3,29.83,SW,228,1.0,3.0,43,0.00,,,0.00,Wunderground v.1.15,2013-10-19 19:05:00,
2013-10-19 15:15:00,65.6,42.5,29.83,WSW,244,2.0,2.0,43,0.00,,,0.00,Wunderground v.1.15,2013-10-19 19:15:00,
2013-10-19 15:20:00,65.6,42.5,29.83,West,259,2.0,2.0,43,0.00,,,0.00,Wunderground v.1.15,2013-10-19 19:20:00,
2013-10-19 15:30:00,65.5,43.0,29.83,SSW,208,1.0,1.0,44,0.00,,,0.00,Wunderground v.1.15,2013-10-19 19:30:00,
2013-10-19 15:35:00,65.4,42.9,29.82,WSW,252,1.0,1.0,44,0.00,,,0.00,Wunderground v.1.15,2013-10-19 19:35:00,
2013-10-19 15:45:00,64.9,42.5,29.82,WSW,255,1.0,2.0,44,0.00,,,0.00,Wunderground v.1.15,2013-10-19 19:45:00,
2013-10-19 15:50:00,64.9,42.5,29.83,WSW,250,1.0,1.0,44,0.00,,,0.00,Wunderground v.1.15,2013-10-19 19:50:00,
2013-10-19 16:00:00,64.7,42.3,29.82,SW,221,1.0,1.0,44,0.00,,,0.00,Wunderground v.1.15,2013-10-19 20:00:00,
2013-10-19 16:05:00,64.5,42.7,29.82,WNW,283,1.0,1.0,45,0.00,,,0.00,Wunderground v.1.15,2013-10-19 20:05:00,
2013-10-19 16:15:00,63.9,42.7,29.82,SSW,208,1.0,1.0,46,0.00,,,0.00,Wunderground v.1.15,2013-10-19 20:15:00,
2013-10-19 16:25:00,63.6,43.0,29.81,SW,226,1.0,1.0,47,0.00,,,0.00,Wunderground v.1.15,2013-10-19 20:25:00,
2013-10-19 16:30:00,63.5,42.9,29.82,WSW,238,1.0,1.0,47,0.00,,,0.00,Wunderground v.1.15,2013-10-19 20:30:00,
2013-10-19 16:40:00,63.1,43.1,29.82,SW,225,1.0,1.0,48,0.00,,,0.00,Wunderground v.1.15,2013-10-19 20:40:00,
2013-10-19 16:50:00,62.8,43.9,29.82,SW,234,1.0,1.0,50,0.00,,,0.00,Wunderground v.1.15,2013-10-19 20:50:00,
2013-10-19 16:55:00,62.6,44.7,29.82,SW,226,1.0,1.0,52,0.00,,,0.00,Wunderground v.1.15,2013-10-19 20:55:00,
2013-10-19 17:00:00,62.5,45.6,29.83,SW,227,0.0,0.0,54,0.00,,,0.00,Wunderground v.1.15,2013-10-19 21:00:00,
2013-10-19 17:05:00,62.3,45.9,29.83,SW,227,0.0,0.0,55,0.00,,,0.00,Wunderground v.1.15,2013-10-19 21:05:00,
2013-10-19 17:15:00,62.1,46.2,29.82,SW,219,0.0,1.0,56,0.00,,,0.00,Wunderground v.1.15,2013-10-19 21:15:00,
2013-10-19 17:25:00,61.9,46.5,29.82,SW,226,1.0,1.0,57,0.00,,,0.00,Wunderground v.1.15,2013-10-19 21:25:00,
2013-10-19 17:30:00,61.8,46.9,29.81,ESE,113,1.0,1.0,58,0.00,,,0.00,Wunderground v.1.15,2013-10-19 21:30:00,
2013-10-19 17:40:00,61.5,47.0,29.81,SW,217,1.0,1.0,59,0.00,,,0.00,Wunderground v.1.15,2013-10-19 21:40:00,
2013-10-19 17:45:00,61.4,46.9,29.81,SSW,202,1.0,1.0,59,0.00,,,0.00,Wunderground v.1.15,2013-10-19 21:45:00,
2013-10-19 17:55:00,61.2,47.2,29.81,South,173,1.0,1.0,60,0.00,,,0.00,Wunderground v.1.15,2013-10-19 21:55:00,
2013-10-19 18:05:00,61.0,46.6,29.81,SSW,194,0.0,1.0,59,0.00,,,0.00,Wunderground v.1.15,2013-10-19 22:05:00,
2013-10-19 18:10:00,60.9,46.9,29.81,SW,219,0.0,1.0,60,0.00,,,0.00,Wunderground v.1.15,2013-10-19 22:10:00,
2013-10-19 18:20:00,60.6,46.6,29.80,SW,223,0.0,0.0,60,0.00,,,0.00,Wunderground v.1.15,2013-10-19 22:20:00,
2013-10-19 18:25:00,60.6,46.6,29.78,South,173,0.0,0.0,60,0.00,,,0.00,Wunderground v.1.15,2013-10-19 22:25:00,
2013-10-19 18:35:00,60.4,46.9,29.78,SE,138,0.0,2.0,61,0.00,,,0.00,Wunderground v.1.15,2013-10-19 22:35:00,
2013-10-19 18:40:00,60.3,46.8,29.79,South,189,0.0,0.0,61,0.00,,,0.00,Wunderground v.1.15,2013-10-19 22:40:00,
2013-10-19 18:50:00,60.1,46.6,29.79,South,190,0.0,1.0,61,0.00,,,0.00,Wunderground v.1.15,2013-10-19 22:50:00,
2013-10-19 18:55:00,60.0,46.5,29.79,South,190,0.0,1.0,61,0.00,,,0.00,Wunderground v.1.15,2013-10-19 22:55:00,
2013-10-19 19:05:00,59.8,46.3,29.78,South,175,0.0,2.0,61,0.00,,,0.00,Wunderground v.1.15,2013-10-19 23:05:00,
2013-10-19 19:10:00,59.7,45.8,29.77,South,175,0.0,0.0,60,0.00,,,0.00,Wunderground v.1.15,2013-10-19 23:10:00,
2013-10-19 19:20:00,59.5,45.2,29.78,SSW,196,0.0,0.0,59,0.00,,,0.00,Wunderground v.1.15,2013-10-19 23:20:00,
2013-10-19 19:30:00,59.3,45.0,29.78,SSW,196,0.0,0.0,59,0.00,,,0.00,Wunderground v.1.15,2013-10-19 23:30:00,
2013-10-19 19:40:00,59.2,45.3,29.78,SSW,196,0.0,0.0,60,0.00,,,0.00,Wunderground v.1.15,2013-10-19 23:40:00,
2013-10-19 19:45:00,59.1,45.7,29.79,South,187,0.0,0.0,61,0.00,,,0.00,Wunderground v.1.15,2013-10-19 23:45:00,
2013-10-19 19:50:00,59.0,45.6,29.78,South,187,0.0,0.0,61,0.00,,,0.00,Wunderground v.1.15,2013-10-19 23:50:00,
2013-10-19 20:00:00,58.9,46.3,29.78,South,188,0.0,0.0,63,0.00,,,0.00,Wunderground v.1.15,2013-10-20 00:00:00,
2013-10-19 20:05:00,58.8,46.6,29.78,SSW,201,0.0,1.0,64,0.00,,,0.00,Wunderground v.1.15,2013-10-20 00:05:00,
2013-10-19 20:15:00,58.7,47.0,29.79,SSW,198,0.0,0.0,65,0.00,,,0.00,Wunderground v.1.15,2013-10-20 00:15:00,
2013-10-19 20:25:00,58.7,47.0,29.78,South,188,0.0,0.0,65,0.00,,,0.00,Wunderground v.1.15,2013-10-20 00:25:00,
2013-10-19 20:30:00,58.7,47.4,29.79,South,188,0.0,0.0,66,0.00,,,0.00,Wunderground v.1.15,2013-10-20 00:30:00,
2013-10-19 20:40:00,58.6,47.3,29.77,SSW,196,0.0,0.0,66,0.00,,,0.00,Wunderground v.1.15,2013-10-20 00:40:00,
2013-10-19 20:45:00,58.6,47.3,29.79,SSW,196,0.0,0.0,66,0.00,,,0.00,Wunderground v.1.15,2013-10-20 00:45:00,
2013-10-19 20:55:00,58.5,47.6,29.77,SE,132,1.0,1.0,67,0.00,,,0.00,Wunderground v.1.15,2013-10-20 00:55:00,
2013-10-19 21:00:00,58.4,47.9,29.77,South,190,0.0,0.0,68,0.00,,,0.00,Wunderground v.1.15,2013-10-20 01:00:00,
2013-10-19 21:05:00,58.4,47.9,29.77,SSE,161,0.0,0.0,68,0.00,,,0.00,Wunderground v.1.15,2013-10-20 01:05:00,
2013-10-19 21:15:00,58.2,47.7,29.76,East,87,0.0,1.0,68,0.00,,,0.00,Wunderground v.1.15,2013-10-20 01:15:00,
2013-10-19 21:20:00,58.1,48.0,29.76,SE,136,1.0,1.0,69,0.00,,,0.00,Wunderground v.1.15,2013-10-20 01:20:00,
2013-10-19 21:30:00,58.0,47.9,29.76,ENE,71,1.0,1.0,69,0.00,,,0.00,Wunderground v.1.15,2013-10-20 01:30:00,
2013-10-19 21:40:00,57.9,47.8,29.76,SE,144,1.0,1.0,69,0.00,,,0.00,Wunderground v.1.15,2013-10-20 01:40:00,
2013-10-19 21:50:00,57.8,47.7,29.75,SSW,207,1.0,2.0,69,0.00,,,0.00,Wunderground v.1.15,2013-10-20 01:50:00,
2013-10-19 21:55:00,57.7,47.6,29.75,SSW,197,1.0,2.0,69,0.00,,,0.00,Wunderground v.1.15,2013-10-20 01:55:00,
2013-10-19 22:05:00,57.6,47.5,29.75,SSW,200,1.0,1.0,69,0.00,,,0.00,Wunderground v.1.15,2013-10-20 02:05:00,
2013-10-19 22:10:00,57.6,47.5,29.75,ENE,64,1.0,3.0,69,0.00,,,0.00,Wunderground v.1.15,2013-10-20 02:10:00,
2013-10-19 22:20:00,57.5,47.4,29.75,SSW,198,1.0,1.0,69,0.00,,,0.00,Wunderground v.1.15,2013-10-20 02:20:00,
2013-10-19 22:25:00,57.5,47.4,29.75,SSW,198,0.0,1.0,69,0.00,,,0.00,Wunderground v.1.15,2013-10-20 02:25:00,
2013-10-19 22:35:00,57.5,47.4,29.75,SSW,207,1.0,1.0,69,0.00,,,0.00,Wunderground v.1.15,2013-10-20 02:35:00,
2013-10-19 22:40:00,57.5,47.4,29.75,SSW,207,1.0,1.0,69,0.00,,,0.00,Wunderground v.1.15,2013-10-20 02:40:00,
2013-10-19 22:50:00,57.4,47.3,29.75,SSW,206,0.0,0.0,69,0.00,,,0.00,Wunderground v.1.15,2013-10-20 02:50:00,
2013-10-19 23:00:00,57.4,46.9,29.74,SW,234,0.0,0.0,68,0.00,,,0.00,Wunderground v.1.15,2013-10-20 03:00:00,
2013-10-19 23:10:00,57.3,46.8,29.74,SSW,205,0.0,0.0,68,0.00,,,0.00,Wunderground v.1.15,2013-10-20 03:10:00,
2013-10-19 23:20:00,57.2,46.7,29.74,SSW,205,0.0,0.0,68,0.00,,,0.00,Wunderground v.1.15,2013-10-20 03:20:00,
2013-10-19 23:25:00,57.2,46.7,29.74,SSW,205,0.0,0.0,68,0.00,,,0.00,Wunderground v.1.15,2013-10-20 03:25:00,
2013-10-19 23:35:00,57.1,46.6,29.73,SSW,205,0.0,1.0,68,0.00,,,0.00,Wunderground v.1.15,2013-10-20 03:35:00,
2013-10-19 23:45:00,57.0,46.9,29.72,SSW,205,0.0,0.0,69,0.00,,,0.00,Wunderground v.1.15,2013-10-20 03:45:00,
2013-10-19 23:50:00,56.9,46.8,29.72,SSW,205,0.0,0.0,69,0.00,,,0.00,Wunderground v.1.15,2013-10-20 03:50:00,